Regional Weather Roundup
Issued by NWS Upton, NY

Current Version | Previous Version | Text Only | Print | Product List | Glossary On
Versions: 1 2 3 4 5 6 7 8 9 10 11 12 13 14 15 16 17 18 19 20 21 22 23 24 25 26 27
000
ASUS41 KOKX 200609
RWROKX

REGIONAL WEATHER ROUNDUP
NATIONAL WEATHER SERVICE NEW YORK NY
200 AM EDT FRI OCT 20 2017

NOTE: "FAIR" INDICATES FEW OR NO CLOUDS BELOW 12,000 FEET WITH NO
SIGNIFICANT WEATHER AND/OR OBSTRUCTIONS TO VISIBILITY.

NYZ071-072-176-178-NJZ106-104-200700-
NEW YORK CITY METRO AREA

CITY           SKY/WX    TMP DP  RH WIND       PRES   REMARKS
Central Park   FAIR      61  47  59 VRB6      30.10S
Bronx Bot Gard   N/A     61  45  55 W8        30.09R
LaGuardia APRT FAIR      65  46  50 W10       30.07S
Kennedy INTL   FAIR      57  51  80 SW8       30.09S
Breezy Point     N/A     59 N/A N/A W12G20      N/A
Newark/Liberty FAIR      59  47  64 W12       30.08F
Teterboro      FAIR      58  48  69 S6        30.07S
$$

NYZ177-179-078>081-200700-
LONG ISLAND NEW YORK

CITY           SKY/WX    TMP DP  RH WIND       PRES   REMARKS
Jones Beach      N/A     61 N/A N/A W10         N/A
Matinecock PT    N/A     64 N/A N/A W18         N/A
Farmingdale    FAIR      58  49  72 W8        30.07F
MacArthur/ISP  FAIR      57  50  77 W8        30.06F
Shirley        FAIR      61  52  72 SW6       30.06F
Mt Sinai Harb    N/A    N/A N/A N/A SW7G13      N/A
Westhampton    FAIR      59  51  75 W9        30.07F
East Hampton   FAIR      57  51  81 CALM      30.05F
Montauk          N/A     62  53  72 SW9       30.05F
$$

NYZ052-065-067-200700-
HUDSON VALLEY

CITY           SKY/WX    TMP DP  RH WIND       PRES   REMARKS
White Plains   FAIR      57  46  66 NW5       30.07S
Larchmont Harb   N/A     61 N/A N/A W8          N/A
Croton On Huds   N/A     57 N/A N/A SE1         N/A
Newburgh       PTCLDY    54  48  82 W7        30.09R
Montgomery     FAIR      50  45  83 SW6       30.07R
Poughkeepsie   FAIR      54  45  71 S3        30.05S
Albany         MOCLDY    60  46  59 W13G21    30.05R
$$

NJZ001-105-106-008-010-013-015-019>022-104-200700-
NEW JERSEY

CITY           SKY/WX    TMP DP  RH WIND       PRES   REMARKS
Newark/Liberty FAIR      59  47  64 W12       30.08F
Teterboro      FAIR      58  48  69 S6        30.07S
Caldwell       FAIR      55  50  83 CALM      30.09S
Somerville     FAIR      45  44  97 CALM      30.09S
Linden         FAIR      59  47  63 W9        30.09S
Perth Amboy      N/A     55 N/A N/A W8          N/A
Sussex         FAIR      49  46  90 CALM      30.10R
Andover          N/A     47  46  97 CALM      30.11R
Trenton        FAIR      59  49  69 W6        30.11S
Millville      FAIR      50  49  96 W3        30.14S
Atlantic City  FAIR      56  53  90 W6        30.13S
Wrightstown    FAIR      53  49  87 CALM      30.09F
Toms River       N/A     52  49  89 W8        30.12F
Belmar         FAIR      55  49  80 SW7       30.11F
$$

PAZ047>061-062-071-200700-
EASTERN PENNSYLVANIA

CITY           SKY/WX    TMP DP  RH WIND       PRES   REMARKS
Philadelphia   FAIR      57  52  83 SW5       30.14S
Allentown      FAIR      52  46  80 W5        30.12R
Scranton       MOCLDY    58  45  62 SW7       30.13R
$$

CTZ002-004>006-009-010-012-RIZ004-006-007-MAZ004-011-015-200700-
SOUTHERN NEW ENGLAND
 IN CT

CITY           SKY/WX    TMP DP  RH WIND       PRES   REMARKS
Bradley INTL   MOCLDY    59  46  62 SW10      30.02S
Hartford       FAIR      54  51  90 S5        30.04R
Danbury        FAIR      55  47  74 N3        30.07S
Wtrbury/Oxford FAIR      55  46  71 CALM      30.06S
Norwalk Harbor   N/A     59 N/A N/A W7          N/A
Bridgeport     FAIR      60  47  61 W7        30.05S
Meriden        FAIR      51  49  92 CALM      30.04F
New Haven      FAIR      61  48  62 VRB5      30.05S
Chester        FAIR      59  46  63 W6G13     30.05R
Groton         FAIR      63  55  75 W7        30.03F
Wilimantic     FAIR      49  47  93 NE3       30.04S

 IN RI

CITY           SKY/WX    TMP DP  RH WIND       PRES   REMARKS
Providence     FAIR      59  55  87 SW8       30.02F
Block Island   FAIR      62  57  83 SW14      30.05F
Westerly       FAIR      63  55  75 SW7       30.04F
 IN MA

CITY           SKY/WX    TMP DP  RH WIND       PRES   REMARKS
Boston         FAIR      59  51  75 SW14      29.98F
Worcester      FAIR      56  43  61 W12       30.00F
Westfield      FAIR      49  46  90 CALM      30.02S
Provincetown   FAIR      59  56  89 SW13      30.00F
Nantucket      FAIR      60  59  96 SW18      30.04F
$$

ANZ330-335-338-340-345-350-353-355-200700-
COASTAL MARINE OBSERVATIONS


STATION/POSITION TIME  SKY/WX   TEMP    WIND        PRES    VSBY  WAVE
                                AIR SEA DIR/SP/G                  HT/PER
                 (UTC)          (F)     (DEG/KT/KT) (MB)    (MI)  (FT/S)
NY HARB ENTRANCE 0450            63 65  250/ 17/ 19 1018.0          3/ 9
20 S FIRE ISLAND 0450            64 64  260/ 17/ 21 1018.9          5/ 5
GREAT SOUTH BAY  0530            62 62  250/ 14/ 17   N/A
15 E BARNEGAT LI NOT AVBL
HUDSON CANYON    0450            65 65  240/ 16/ 17 1019.3          5/ 9
KINGS POINT      0548            64 66  310/ 10/ 13 1019.0
EXECUTION ROCKS  0545            65     250/ 10/ 14   N/A
WESTERN LI SOUND 0449            65     250/ 14/ 17   N/A           1/ 3
CENTRAL LI SOUND 0530            65     240/ 16/ 19   N/A           3
EASTERN LI SOUND NOT AVBL
ROBBINS REEF     0548            61     270/ 10/ 14 1019.2
$$


>>>>>>>>>>>>>>>>>>>>>>>>>>>> KEY <<<<<<<<<<<<<<<<<<<<<<<<<<<
>                                                          <
>     SKY/WX - Sky Condition/Present Weather               <
>     TMP    - Temperature in Fahrenheit                   <
>     DP     - Dew Point in Fahrenheit                     <
>     RH     - Relative Humidity in Percent                <
>     WIND   - Direction (from) and Speed in MPH           <
>     PRES   - Mean Sea Level Pressure (inches of Hg)      <
>     WCI    - Wind Chill Index                            <
>     VSB    - VISIBILITY IN MILES                         <
>     HX     - HEAT INDEX                                  <
>     TC     - TEMPERATURE IN CELSIUS                      <
>     VRB    - VARIABLE WIND DIRECTION                     <
>                                                          <
>>>>>>>>>>>>>>>>>>>>>>>>>>>> KEY <<<<<<<<<<<<<<<<<<<<<<<<<<<




USA.gov is the U.S. government's official web portal to all federal, state and local government web resources and services.